Showing default

EGS (AJISAI), 16908

Orbit data source: Space-Track

EGS (AJISAI), 16908 is a payload satellite owned by NASDA (JP) in LEO that was launched on Tue, 12 Aug 1986 UTC via an H-1 launch vehicle from the Tanegashima Space Center (TNSTA). Payload-class satellites include a variety of spacecraft equipped with specific instruments for various scientific and technological missions. These include communications satellites like Starlink; space stations such as the ISS; scientific satellites like the Hubble; Earth observation satellites from companies like Planet Labs, Umbra, and HawkEye 360; GPS; miniature CubeSats for education and research; and military/defense satellites.

Loading next visibility...
Identifier
16908, 1986-061A
Orbit
LEO
Country
Flag of JPJP / JPN
Related business
Manufacturer
Kawasaki
Mission
Operational Civil Geodetic
Bus & Motor
EGP, Unknown motor
Mass
685 kg wet, 685 kg dry
Launch date (UTC)
1986-08-12 (39 years ago)
Launch vehicle
H-1
Launch site
Tanegashima Space Center (TNSTA)
Object type
Payload
Rocket body
Debris
Shape & HBR
Sphere, 1.1 m
Radar Cross Section
3.631 m², Large (>1 m²)

Expand to show TLE details & history
Last TLE update: 14 hours ago

TLE from 14 hours ago
0 EGS (AJISAI)
1 16908U 86061A   25347.01092103 -.00000086  00000-0  77907-4 0  9991
2 16908  50.0113 359.8833 0011293  66.5740 123.6113 12.44514291457207
Epoch: 2025-12-13T00:15Z
TLE epoch observation values (Epoch: 2025-12-13T00:15:43.576Z)
Latitude
-7.97272°
Longitude
100.72056°
Altitude
1,494.321 km
Speed
7.115 km/s
True Right ascension
12h 26m 23s
True Declination
-7° 55' 48"
Sunlit
Object was in daylight at epoch
Visualization orbit readout
Latitude
Unknown
Longitude
Unknown
Altitude
Unknown
Speed
Unknown
Apparent Right ascension
Unknown
Apparent Declination
Unknown
Sunlit
N/A
Visualization observer readout
Local Sidereal Time
12:31:52
Azimuth
Unknown
Elevation
Unknown
Doppler factor
Unknown
Orbital elements
Apogee altitude
1,497.082 km
Perigee altitude
1,479.315 km
Semi-major axis
7,866.335 km
Eccentricity
0.00113
Inclination
50.0113°
RAAN
359.8833°
Arg. of periapsis
66.574°
True anomaly
123.71899°
Mean anomaly
123.6113°
Eccentric anomaly
123.66515°
Mean motion
3.11089 °/min
Orbital period
115.72 mins
BSTAR
0.000077907
Loading maneuver chart data...
Computing Atmospheric mass density...
Loading historical data...
Loading historical data...
Loading historical data...
Loading historical data...
Loading historical data...
Loading historical data...
Loading historical data...
Other satellites on launch #61 in the year 1986 (1986-08-12 UTC)

Documentation

Showing up to 5 results
|